Location: Kitt Peak
(31.9639°N, 111.5992°W)
Time: 15:18:59
(UTC-07:00)

DIWATA 2B (PO-101) - Pass Details

Date: 17 September 2024
Orbit: 572 x 585 km, 98.1° (Epoch: 10 October)

Event Time Altitude Azimuth Distance (km) Brightness Sun altitude
Exits shadow 04:21:09 26° 160° (SSE) 1,144 ? -23.9°
Maximum altitude 04:23:23 79° 78° (ENE) 589 ? -23.4°
Drops below altitude 10° 04:27:28 10° 351° (N) 1,883 ? -22.6°
Sets 04:29:36 0° 350° (N) 2,783 ? -22.2°
